Location: Grossmotten
(48.5500°N, 15.3833°E)
Time: 14:15:04
(UTC+00:00)

Cosmos 1408 - Pass Details

Date: 15 November 2019
Orbit: 470 x 497 km, 82.6° (Epoch: 05 December)

Event Time Altitude Azimuth Distance (km) Brightness Sun altitude
Rises 04:22:56 0° 177° (S) 2,567 6.4 -16.9°
Reaches altitude 10° 04:25:04 10° 172° (S) 1,687 5.5 -16.6°
Maximum altitude 04:28:40 53° 95° (E) 614 3.4 -16.0°
Drops below altitude 10° 04:32:16 10° 18° (NNE) 1,689 5.4 -15.4°
Sets 04:34:24 0° 14° (NNE) 2,571 6.3 -15.1°
